Starlink 31267

operational
NORAD ID: 59468 Int'l Des: 2024-068 Owner: SPXS Country: US Constellation: starlink
LEOCIRCULAR

Über Starlink 31267

Beschreibung wird geladen...

Live-Position

3D-Globus wird geladen...

Nächste Überflüge

Höhenverlauf

Altitude vs Time

uPlot chart will show altitude changes over time

Zweizeiliger Elementsatz

1 59468U 24068P 26034.50730265 .00000562 00000-0 29957-4 0 9994
2 59468 43.0027 223.3467 0001219 272.2730 87.7982 15.27576596103348
Epoch: 3. Feb. 2026 • Age: 5 hours

Aktueller Status

Höhe 485.0 km
Geschwindigkeit 7.63 km/s
Subsatellitenpunkt 33.74°N, 38.68°W
Startdatum 10. Apr. 2024
Alter 1.8 years
Typ internet

Technische Details

Klassifizierung Payload
Masse 730.00 kg
Trockenmasse 700.00 kg
Gesamtmasse 730.00 kg
Länge 0.30 m
Durchmesser 4.10 m
Spannweite 29.00 m
Form Box + pan
Hersteller SPXS
Bus-Typ Starlink V2M
Phasenstatus In Orbit
Besitzer/Staat SPXS/US

Große Konstellationen

Loading constellations...